Location: Carrières
(48.9495°N, 2.0407°E)
Time: 20:25:41
(UTC+00:00)

Transit 2A Rocket - Pass Details

Date: 24 April 2024
Orbit: 585 x 908 km, 66.7° (Epoch: 18 May)

Event Time Altitude Azimuth Distance (km) Brightness Sun altitude
Rises 10:21:05 0° 198° (SSW) 2,871 8.3 49.7°
Reaches altitude 10° 10:23:18 10° 193° (SSW) 2,003 7.7 49.9°
Maximum altitude 10:27:39 50° 118° (ESE) 848 7.0 50.3°
Drops below altitude 10° 10:32:26 10° 44° (NE) 2,195 7.4 50.7°
Sets 10:34:57 0° 39° (NE) 3,176 8.1 51.0°
